Regional Weather Roundup
Issued by NWS

Home | Current Version | Previous Version | Text Only | Print | Product List | Glossary On
Versions: 1 2 3 4 5 6 7 8 9 10 11 12 13 14 15 16 17 18 19 20 21 22 23 24 25 26 27 28 29 30 31 32 33 34 35 36 37 38 39 40 41 42 43 44 45 46 47 48 49 50
498
ASUS43 KMPX 190910
RWRMN
WEATHER ROUNDUP FOR MINNESOTA
NATIONAL WEATHER SERVICE TWIN CITIES/CHANHASSEN MN
300 AM CST THU JAN 19 2017


NOTE: "FAIR" INDICATES FEW OR NO CLOUDS BELOW 12,000 FEET WITH NO
SIGNIFICANT WEATHER AND/OR OBSTRUCTIONS TO VISIBILITY. N/A MEANS
CURRENT SKY AND/OR WEATHER CONDITIONS ARE NOT AVAILABLE.

MNZ060>063-068>070-191000-
   Twin Cities Metro

CITY           SKY/WX    TMP DP  RH WIND       PRES   REMARKS
TWIN CITIES    CLOUDY    30  28  92 SE5       29.82S WCI  25
ST PAUL        CLOUDY    30  30 100 SE3       29.84S FOG
CRYSTAL        CLOUDY    29  27  92 S5        29.80R FOG     WCI  24
BLAINE         CLOUDY    34  34 100 S8        29.80F FOG     WCI  27
LAKEVILLE      CLEAR     32  32 100 S9        29.82S WCI  24
EDEN PRAIRIE   CLEAR     37  32  82 S12       29.80S
SOUTH ST PAUL  CLOUDY    31  30  99 CALM      29.83F FOG
LAKE ELMO      FAIR      32  32 100 S7        29.84S WCI  26
$$
MNZ001>005-007-008-013>017-022>024-027-028-191000-
   Northwest Minnesota

CITY           SKY/WX    TMP DP  RH WIND       PRES   REMARKS
BEMIDJI        CLOUDY    26  23  88 S3        29.66S
HALLOCK        CLOUDY    27  21  80 S16       29.57R WCI  14
ROSEAU         CLOUDY    32  25  74 S16       29.58F WCI  21
WARROAD        CLOUDY    32  25  74 S7        29.60S WCI  26
THIEF RVR FALL CLOUDY    25  22  88 S12       29.63F WCI  14
CROOKSTON      CLOUDY    27  25  93 S14       29.64F WCI  15
FOSSTON        CLOUDY    25  19  80 S9        29.65S WCI  15
DETROIT LAKES  CLOUDY    28  27  93 SE6       29.67S WCI  22
MOORHEAD       CLOUDY    27  25  93 S13       29.66S WCI  16
PARK RAPIDS    FOG       27  23  85 S10       29.68R VSB 1/4 WCI  17
MAHNOMEN       FAIR      29  23  77 S8        29.65S WCI  21
$$
MNZ006-009>011-018-025>026-191000-
   North Central Minnesota

CITY           SKY/WX    TMP DP  RH WIND       PRES   REMARKS
BAUDETTE       CLOUDY    27  20  75 SE7       29.63R WCI  19
FLAG ISLAND    CLOUDY    25  19  80 S13       29.59F WCI  13
INTL FALLS     CLOUDY    24  21  88 SE3       29.68R
WASKISH        CLOUDY    32  27  80 S5        29.65F WCI  27
BIG FORK       CLOUDY    28  25  86 S6        29.68S WCI  22
LONGVILLE      FOG       28  28 100 SE8       29.70S VSB 1   WCI  20
GRAND RAPIDS   FOG       29  28  96 S12       29.72S VSB 3/4 WCI  19
CRANE LAKE     CLEAR     14  12  92 CALM      29.73S
ORR            CLOUDY    28  25  86 CALM      29.68S
COOK           CLOUDY    28  27  93 CALM      29.71S
WALKER         FAIR      25  24  93 CALM      29.68S
$$
MNZ012-019>021-037-191000-
   Northeast Minnesota

CITY           SKY/WX    TMP DP  RH WIND       PRES   REMARKS
DULUTH         FOG       33  33 100 SW13      29.76R VSB 1/4 WCI  24
ELY            CLOUDY    21  21 100 SE5       29.73S WCI  15
HIBBING        CLOUDY    26  26 100 S7        29.72S FOG     WCI  18
EVELETH        CLOUDY    19  17  92 NE3       29.74S FOG
DULUTH HARBOR  CLOUDY    32  30  93 CALM      29.80S FOG
TWO HARBORS    CLOUDY    32  27  80 CALM      29.76S HAZE
SILVER BAY     CLOUDY    19  18  93 CALM      29.77S
G MARAIS ARPRT CLOUDY    19  18  93 CALM      29.77R
$$
MNZ029>031-032-039>041-046>048-054>057-064-191000-
   West Central Minnesota

CITY           SKY/WX    TMP DP  RH WIND       PRES   REMARKS
FERGUS FALLS   FOG       30  30 100 S13       29.73R VSB 1/4 WCI  20
WHEATON        FOG       30  30 100 SE9       29.70R VSB 1/2 WCI  22
MORRIS         SNOW      28  28 100 SE8       29.69S VSB<1/4 WCI  20
ALEXANDRIA     FOG       32  32 100 S10       29.71S VSB 1/4 WCI  24
ELBOW LAKE     SNOW      30  30 100 E9        29.70R VSB 1/4 WCI  22
WADENA         FOG       25  25 100 SE7       29.69S VSB<1/4 WCI  17
GLENWOOD       FOG       28  28 100 S8        29.72S VSB 1   WCI  20
APPLETON       FOG       25  23  93 SE5       29.71S VSB 1/4 WCI  19
ORTONVILLE     FOG       23  21  93 CALM      29.69S VSB 1/2
MADISON        CLOUDY    32  32 100 S6        29.70S WCI  26
WILLMAR        FAIR      27  27 100 SE6       29.75S FOG     WCI  20
$$
MNZ033>034-036-042>043-049>051-058-059-191000-
   Central Minnesota

CITY           SKY/WX    TMP DP  RH WIND       PRES   REMARKS
ST CLOUD       FOG       29  29 100 SE5       29.77R VSB 1/4 WCI  24
SAUK CENTRE    SNOW      28  28  99 S9        29.74S VSB 1/4 WCI  20
PAYNESVILLE    FOG       29  29 100 SE6       29.75F VSB 1/4 WCI  23
AITKIN         FOG       36  30  80 S7        29.73R VSB 1/2
PINE RIVER     SNOW      28  28 100 S5        29.75S VSB 1/4 WCI  23
BRAINERD       FOG       32  32 100 S9        29.73S VSB 1/4 WCI  24
STAPLES        SNOW      28  28 100 S8        29.71S VSB 1/4 WCI  20
LONG PRAIRIE   SNOW      32  30  93 SE6       29.73S VSB 1/2 WCI  26
LITTLE FALLS   FOG       32  30  93 SE7       29.75S VSB 1/4 WCI  26
LITCHFIELD     CLOUDY    32  32 100 CALM      29.77S FOG
BUFFALO        CLOUDY    32  31  96 S3        29.79F FOG
MAPLE LAKE     CLOUDY    32  32 100 S5        29.78S FOG     WCI  27
HUTCHINSON     CLOUDY    31  31  99 SE3       29.79R FOG
$$
MNZ037-044-045-052-053-191000-
   East Central Minnesota

CITY           SKY/WX    TMP DP  RH WIND       PRES   REMARKS
PRINCETON      FOG       30  28  93 CALM      29.78S VSB 1/2
MORA           FOG       30  28  93 S3        29.80S VSB 1/4
CAMBRIDGE      CLOUDY    32  27  80 SE3       29.78S HAZE
RUSH CITY      CLOUDY    28  28 100 S6        29.80S FOG     WCI  22
MOOSE LAKE     FOG       32  32 100 S8        29.76S VSB 3/4 WCI  25
HINCKLEY       CLOUDY    32  32 100 S5        29.79S FOG     WCI  27
CLOQUET        FOG       32  30  93 S7        29.76S VSB 1/4 WCI  26
MCGREGOR       CLOUDY    32  32 100 S7        29.75S VSB 1/2 WCI  26
$$
MNZ071>073-080-081-089-090-097-098-191000-
   Southwest Minnesota

CITY           SKY/WX    TMP DP  RH WIND       PRES   REMARKS
MONTEVIDEO     CLOUDY    30  30 100 S6        29.73S WCI  24
GRANITE FALLS  CLOUDY    33  31  96 S8        29.74S WCI  25
CANBY          CLOUDY    41  37  86 SW17G26   29.70R
MARSHALL       CLEAR     38  34  85 SW13      29.72S
REDWOOD FALLS  CLEAR     32  28  85 S9        29.75S WCI  24
OLIVIA         CLOUDY    32  32 100 S9        29.74S WCI  24
PIPESTONE      CLEAR     37  34  87 S16       29.73R
WINDOM           N/A     37  34  87 S10       29.77F
WORTHINGTON    CLEAR     36  32  85 S15       29.77S
JACKSON        CLEAR     32  32 100 S8        29.80S WCI  25
TRACY          CLEAR     40  35  84 SW20G25   29.73S
SLAYTON        CLEAR     36  33  90 S20       29.75S
$$
MNZ065>067-074>077-082>085-091>093-191000-
   South Central Minnesota

CITY           SKY/WX    TMP DP  RH WIND       PRES   REMARKS
NEW ULM        CLEAR     34  30  86 S6        29.78F WCI  29
ST JAMES       CLEAR     34  34 100 S9        29.81S WCI  26
FAIRMONT       CLEAR     34  32  92 S14       29.82S WCI  25
GLENCOE        CLEAR     36  35  97 S8        29.78S
FARIBAULT      CLEAR     36  32  87 S8        29.84S
OWATONNA       CLEAR     34  30  86 S15       29.84S WCI  24
WASECA         CLEAR     34  32  93 S15       29.85S WCI  24
ALBERT LEA     CLEAR     34  32  93 S7        29.86S FOG     WCI  28
$$
MNZ078>079-086>088-094>096-191000-
   Southeast Minnesota

CITY           SKY/WX    TMP DP  RH WIND       PRES   REMARKS
ROCHESTER      CLEAR     31  30  96 S12       29.87F WCI  22
RED WING       CLOUDY    34  30  86 SE7       29.87R WCI  28
STANTON        CLEAR     35  31  87 S7        29.83S WCI  29
DODGE CENTER   CLEAR     30  30 100 S14       29.86S WCI  20
WINONA         CLEAR     34  32  93 SE5       29.92F WCI  30
AUSTIN         CLEAR     30  28  93 S8        29.87F FOG     WCI  23
PRESTON        CLEAR     31  30  94 S10       29.89F WCI  23
$$
ABBREVIATIONS USED IN REMARKS
   TC - TEMPERATURES IN CELSIUS
  WCI - WIND CHILL INDEX
   HX - HEAT INDEX
  VSB - VISIBILITY
$$




USA.gov is the U.S. government's official web portal to all federal, state and local government web resources and services.